Location: Newark
(49.8969°N, 3.3422°E)
Time: 06:47:05
(UTC+00:00)

Tiros 1 - Pass Details

Date: 23 January 2021
Orbit: 630 x 664 km, 48.4° (Epoch: 06 March)

Event Time Altitude Azimuth Distance (km) Brightness Sun altitude
Rises 19:09:14 0° 243° (WSW) 2,921 11.5 -25.9°
Reaches altitude 10° 19:11:36 10° 239° (WSW) 2,011 10.4 -26.3°
Enters shadow 19:15:03 44° 208° (SSW) 877 7.9 -26.8°
